Waarnemingen

Advertentie
Mijn weer
Cap Bear, Frankrijk (7749): temperatuur & dauwpunt: 16.01.2018 21:00:00 - 22.01.2018 21:00:00 (CET)Cap Bear, Frankrijk (7749): windsnelheid & windstoten: 16.01.2018 21:00:00 - 22.01.2018 21:00:00 (CET)Cap Bear, Frankrijk (7749): windrichting: 16.01.2018 21:00:00 - 22.01.2018 21:00:00 (CET)Cap Bear, Frankrijk (7749): luchtdruk: 16.01.2018 21:00:00 - 22.01.2018 21:00:00 (CET)Cap Bear, Frankrijk (7749): zicht: 16.01.2018 21:00:00 - 22.01.2018 21:00:00 (CET)Cap Bear, Frankrijk (7749): neerslag: 16.01.2018 21:00:00 - 22.01.2018 21:00:00 (CET)
Datum & Tijd tt [°C] td [°C] ff [km/u] ff [kn] fx [km/u] fx [kn] dd ppp [hPa] vv [km] rr [mm]
22.01.2018 21:00:00 15,3 9,4 102 55 130 70 NNW 1020,5 - 0,0
22.01.2018 20:00:00 15,4 10,0 64 35 109 59 NNW 1021,7 - 0,0
22.01.2018 19:00:00 16,8 9,0 49 27 87 47 NW 1021,0 25 0,0
22.01.2018 18:00:00 17,3 8,7 60 32 80 43 NW 1020,0 - 0,0
22.01.2018 17:00:00 17,3 7,1 38 20 61 33 NW 1019,9 - 0,0
22.01.2018 16:00:00 16,6 7,8 23 12 47 26 NW 1020,8 25 0,0
22.01.2018 15:00:00 16,4 7,6 11 6 40 21 W 1021,0 - 0,0
22.01.2018 14:00:00 16,8 7,2 19 11 47 25 NW 1020,8 - 0,0
22.01.2018 13:00:00 16,6 7,2 41 22 73 40 NW 1020,9 - 0,0
22.01.2018 12:00:00 16,9 7,8 45 24 67 36 NNW 1020,9 - 0,0
22.01.2018 11:00:00 16,0 8,0 34 18 69 38 NNW 1022,0 - 0,0
22.01.2018 10:00:00 15,7 8,2 61 33 95 51 NNW 1020,7 25 0,0
22.01.2018 09:00:00 14,9 8,4 53 29 74 40 NNW 1021,0 - 0,0
22.01.2018 08:00:00 14,6 8,5 30 16 70 38 NNW 1021,6 - 0,0
22.01.2018 07:00:00 15,6 8,1 50 27 81 44 NW 1020,8 - 0,0
22.01.2018 06:00:00 16,1 8,1 50 27 89 48 NW 1019,4 - 0,0
22.01.2018 05:00:00 16,2 7,9 36 19 74 40 NW 1020,2 - 0,0
22.01.2018 04:00:00 16,5 7,9 40 22 87 47 WNW 1019,8 20 0,0
22.01.2018 03:00:00 16,2 8,7 67 36 82 45 NW 1019,5 - 0,0
22.01.2018 02:00:00 16,3 8,5 69 37 93 50 NNW 1019,5 - 0,0
22.01.2018 01:00:00 16,2 8,7 75 40 104 56 NNW 1018,9 - 0,0
22.01.2018 00:00:00 17,3 7,9 99 54 130 70 NNW 1018,9 - 0,0
21.01.2018 23:00:00 16,3 8,8 94 51 125 67 NNW 1018,0 - 0,0
21.01.2018 22:00:00 16,3 9,0 88 48 113 61 NNW 1018,3 - 0,0
21.01.2018 21:00:00 16,9 9,6 82 44 104 56 NNW 1018,7 - 0,0
21.01.2018 20:00:00 17,4 9,3 49 26 101 55 NW 1020,1 - 0,0
21.01.2018 19:00:00 16,9 9,6 50 27 113 61 NW 1019,6 - 0,0
21.01.2018 18:00:00 15,9 10,2 87 47 112 61 NNW 1016,5 - 0,0
21.01.2018 17:00:00 15,9 10,4 84 45 131 71 NNW 1017,4 - 0,0
21.01.2018 16:00:00 - - - - - - - - - -
21.01.2018 15:00:00 - - - - - - - - - -
21.01.2018 14:00:00 - - - - - - - - - -
21.01.2018 13:00:00 - - - - - - - - - -
21.01.2018 12:00:00 - - - - - - - - - -
21.01.2018 11:00:00 - - - - - - - - - -
21.01.2018 10:00:00 - - - - - - - - - -
21.01.2018 09:00:00 15,7 10,0 89 48 119 64 NW 1015,3 - 0,0
21.01.2018 08:00:00 - - - - - - - - - -
21.01.2018 07:00:00 - - - - - - - - - -
21.01.2018 06:00:00 16,0 9,4 100 54 135 73 NW 1013,8 - 0,0
21.01.2018 05:00:00 16,1 9,3 101 55 143 77 NW 1013,1 - 0,0
21.01.2018 04:00:00 16,0 9,2 107 58 144 78 NW 1012,7 20 0,0
21.01.2018 03:00:00 16,5 9,2 109 59 145 78 NW 1012,1 - 0,0
21.01.2018 02:00:00 16,6 8,8 89 48 115 62 NW 1013,3 - 0,0
21.01.2018 01:00:00 - - - - - - - - - -
21.01.2018 00:00:00 - - - - - - - - - -
20.01.2018 23:00:00 - - - - - - - - - -
20.01.2018 22:00:00 16,8 9,2 66 36 90 49 NW 1014,4 - 0,0
20.01.2018 21:00:00 - - - - - - - - - -
20.01.2018 20:00:00 16,9 8,8 46 25 84 45 NW 1014,3 - 0,0
20.01.2018 19:00:00 - - - - - - - - - -
20.01.2018 18:00:00 13,9 5,3 16 8 24 13 ZZW 1015,6 - 0,0
20.01.2018 17:00:00 14,8 5,3 6 3 29 16 WZW 1015,4 - 0,0
20.01.2018 16:00:00 15,3 4,9 19 11 30 16 ZZW 1015,1 30 0,0
20.01.2018 15:00:00 - - - - - - - - - -
20.01.2018 14:00:00 14,3 4,8 17 9 27 14 ZZW 1016,6 - 0,0
20.01.2018 13:00:00 - - - - - - - - - -
20.01.2018 12:00:00 12,0 5,4 32 17 47 26 Z 1018,5 - 0,0
20.01.2018 11:00:00 - - - - - - - - - -
20.01.2018 10:00:00 - - - - - - - - - -
20.01.2018 09:00:00 10,5 2,3 26 14 36 19 NW 1021,1 - 0,0
20.01.2018 08:00:00 9,4 2,3 18 10 35 19 NW 1021,1 - 0,0
20.01.2018 07:00:00 9,3 2,4 18 10 29 16 NW 1021,1 20 0,0
20.01.2018 06:00:00 9,8 2,9 25 13 39 21 NW 1021,6 - 0,0
20.01.2018 05:00:00 9,4 2,7 9 5 51 28 ZW 1021,8 - 0,0
20.01.2018 04:00:00 9,9 3,4 24 13 73 40 WNW 1021,8 - 0,0
20.01.2018 03:00:00 10,4 3,9 49 26 68 37 NW 1021,0 - 0,0
20.01.2018 02:00:00 - - - - - - - - - -
20.01.2018 01:00:00 - - - - - - - - - -
20.01.2018 00:00:00 12,2 5,4 67 36 88 48 NNW 1019,9 - 0,0
19.01.2018 23:00:00 - - - - - - - - - -
19.01.2018 22:00:00 - - - - - - - - - -
19.01.2018 21:00:00 - - - - - - - - - -
19.01.2018 20:00:00 11,3 6,0 18 10 52 28 NNW 1020,4 - 0,0
19.01.2018 19:00:00 11,5 7,6 50 27 68 37 N 1018,9 25 0,0
19.01.2018 18:00:00 - - - - - - - - - -
19.01.2018 17:00:00 - - - - - - - - - -
19.01.2018 16:00:00 14,3 6,6 32 17 58 31 NW 1017,4 - 0,0
19.01.2018 15:00:00 - - - - - - - - - -
19.01.2018 14:00:00 - - - - - - - - - -
19.01.2018 13:00:00 - - - - - - - - - -
19.01.2018 12:00:00 - - - - - - - - - -
19.01.2018 11:00:00 - - - - - - - - - -
19.01.2018 10:00:00 - - - - - - - - - -
19.01.2018 09:00:00 - - - - - - - - - -
19.01.2018 08:00:00 - - - - - - - - - -
19.01.2018 07:00:00 - - - - - - - - - -
19.01.2018 06:00:00 - - - - - - - - - -
19.01.2018 05:00:00 - - - - - - - - - -
19.01.2018 04:00:00 - - - - - - - - - -
19.01.2018 03:00:00 - - - - - - - - - -
19.01.2018 02:00:00 - - - - - - - - - -
19.01.2018 01:00:00 - - - - - - - - - -
19.01.2018 00:00:00 - - - - - - - - - -
18.01.2018 23:00:00 - - - - - - - - - -
18.01.2018 22:00:00 - - - - - - - - - -
18.01.2018 21:00:00 - - - - - - - - - -
18.01.2018 20:00:00 - - - - - - - - - -
18.01.2018 19:00:00 - - - - - - - - - -
18.01.2018 18:00:00 - - - - - - - - - -
18.01.2018 17:00:00 - - - - - - - - - -
18.01.2018 16:00:00 - - - - - - - - - -
18.01.2018 15:00:00 - - - - - - - - - -
18.01.2018 14:00:00 - - - - - - - - - -
18.01.2018 13:00:00 - - - - - - - - - -
18.01.2018 12:00:00 - - - - - - - - - -
18.01.2018 11:00:00 - - - - - - - - - -
18.01.2018 10:00:00 - - - - - - - - - -
18.01.2018 09:00:00 - - - - - - - - - -
18.01.2018 08:00:00 - - - - - - - - - -
18.01.2018 07:00:00 - - - - - - - - - -
18.01.2018 06:00:00 - - - - - - - - - -
18.01.2018 05:00:00 - - - - - - - - - -
18.01.2018 04:00:00 - - - - - - - - - -
18.01.2018 03:00:00 - - - - - - - - - -
18.01.2018 02:00:00 - - - - - - - - - -
18.01.2018 01:00:00 - - - - - - - - - -
18.01.2018 00:00:00 - - - - - - - - - -
17.01.2018 23:00:00 - - - - - - - - - -
17.01.2018 22:00:00 - - - - - - - - - -
17.01.2018 21:00:00 - - - - - - - - - -
17.01.2018 20:00:00 - - - - - - - - - -
17.01.2018 19:00:00 - - - - - - - - - -
17.01.2018 18:00:00 - - - - - - - - - -
17.01.2018 17:00:00 - - - - - - - - - -
17.01.2018 16:00:00 - - - - - - - - - -
17.01.2018 15:00:00 - - - - - - - - - -
17.01.2018 14:00:00 - - - - - - - - - -
17.01.2018 13:00:00 - - - - - - - - - -
17.01.2018 12:00:00 - - - - - - - - - -
17.01.2018 11:00:00 - - - - - - - - - -
17.01.2018 10:00:00 - - - - - - - - - -
17.01.2018 09:00:00 10,9 5,4 103 56 162 88 NNW 1013,4 20 0,0
17.01.2018 08:00:00 12,5 5,2 141 76 179 97 NNW 1010,4 - 0,0
17.01.2018 07:00:00 12,2 5,8 116 63 159 86 NNW 1010,5 20 0,0
17.01.2018 06:00:00 12,5 7,0 94 51 149 80 NNW 1011,4 - 0,0
17.01.2018 05:00:00 14,5 7,1 110 59 143 77 NW 1011,6 - 0,0
17.01.2018 04:00:00 16,0 5,9 35 19 81 44 NW 1013,4 - 0,0
17.01.2018 03:00:00 15,4 5,9 11 6 44 24 W 1013,8 - 0,0
17.01.2018 02:00:00 14,2 4,5 12 7 20 11 Z 1013,8 - 0,0
17.01.2018 01:00:00 13,2 4,6 14 7 27 14 ZZW 1014,6 - 0,0
17.01.2018 00:00:00 12,3 5,9 11 6 22 12 N 1015,6 - 0,0
16.01.2018 23:00:00 14,7 5,7 7 4 20 11 Z 1015,7 - 0,0
16.01.2018 22:00:00 14,5 4,2 16 9 22 12 Z 1015,9 - 0,0
16.01.2018 21:00:00 14,1 5,2 10 6 21 12 Z 1016,6 - 0,0

tt = temperatuur
td = dauwpunt
ff = windsnelheid
fx = windstoten
dd = windrichting
ppp = luchtdruk
vv = zicht
rr = neerslag

Weerstations in de omgeving